Regional Weather Roundup
Issued by NWS Northern Indiana

Home | Current Version | Previous Version | Text Only | Print | Product List | Glossary On
Versions: 1 2 3 4 5 6 7 8 9 10 11 12 13 14 15 16 17 18 19 20 21 22 23 24 25 26 27 28 29 30 31 32 33 34 35 36 37 38 39 40 41 42 43 44 45 46 47 48 49 50
000
ASUS43 KIWX 270410
RWRIWX

KIWX WEATHER ROUNDUP
NATIONAL WEATHER SERVICE NORTHERN INDIANA
1200 AM EDT WED JUL 27 2016

NOTE: "FAIR" INDICATES FEW OR NO CLOUDS BELOW 12,000 FEET WITH NO
SIGNIFICANT WEATHER AND/OR OBSTRUCTIONS TO VISIBILITY.

* THESE STATIONS ARE NOT UNDER NWS QUALITY CONTROL. THEY ALSO MAY NOT
  REPORT WEATHER SUCH AS PRECIPITATION OR FOG.

INZ001>027-270500-
NORTHERN INDIANA

CITY           SKY/WX    TMP DP  RH WIND       PRES   REMARKS
GARY*          CLEAR     73  70  88 S3        30.02S
VALPARAISO     PTCLDY    69  65  86 CALM      30.04R
MICHIGAN CITY*   N/A     64  64 100 CALM      30.03S FOG
LAPORTE*       PTCLDY    71  71 100 CALM      30.04S
KNOX*          CLEAR     68  63  83 N3        30.02S
SOUTH BEND     CLEAR     69  64  84 CALM      30.03S
GOSHEN         CLEAR     70  64  81 CALM      30.03R
MONTICELLO*    CLEAR     70  65  82 CALM      30.02S
LOGANSPORT*    CLEAR     68  63  83 CALM      30.04R
ROCHESTER*     CLEAR     72  70  94 CALM      30.04R
WARSAW*        CLEAR     64  63  94 CALM      30.03R
ANGOLA*        CLEAR     66  57  72 CALM      30.03S
FORT WAYNE     CLEAR     71  64  78 W5        30.02S
HUNTINGTON*    CLEAR     70  67  90 CALM      30.02S
PERU/GRISSOM   CLEAR     70  65  83 CALM      30.02R
MARION*        PTCLDY    67  64  92 CALM      30.04R

$$
INZ028>050-270500-
CENTRAL INDIANA

CITY           SKY/WX    TMP DP  RH WIND       PRES   REMARKS
LAFAYETTE      CLEAR     68  68 100 CALM      30.02S
KOKOMO*        PTCLDY    68  63  83 CALM      30.03R
MUNCIE*        PTCLDY    71  65  81 CALM      30.03S
INDIANAPOLIS   MOCLDY    74  65  73 CALM      30.03S

$$
MIZ043>046-050>051-056>058-064>065-071>073-077>080-270500-
SOUTHWEST LOWER MICHIGAN

CITY           SKY/WX    TMP DP  RH WIND       PRES   REMARKS
BATTLE CREEK   CLEAR     70  67  90 CALM      30.03S
BENTON HARBOR  CLEAR     66  64  93 CALM      30.01S FOG
COLDWATER*     CLEAR     67  66  95 CALM      30.03R
HOLLAND        CLEAR     65  64  97 CALM      30.02S
GRAND RAPIDS   CLEAR     70  61  73 S3        30.02S
KALAMAZOO      CLEAR     69  64  84 CALM      30.03S
STURGIS*       CLEAR     68  64  89 CALM      30.02R
THREE RIVERS*  FAIR      70  65  85 CALM      30.03S

$$
OHZ001>008-015>018-024>025-270500-
NORTHWEST OHIO

CITY           SKY/WX    TMP DP  RH WIND       PRES   REMARKS
DEFIANCE       CLEAR     71  64  78 CALM      30.02S
FINDLAY        MOCLDY    72  61  68 S3        30.02R
TOLEDO EXPRESS CLEAR     67  66  97 CALM      30.01S
TOLEDO METCALF CLEAR     73  62  68 SE5       30.02S
LIMA           CLEAR     69  64  84 E6        30.03S

$$
AND FOR LAKE MICHIGAN COASTAL AND OPEN LAKE BUOY OBSERVATIONS

STATION/POSITION TEMP    WIND        PRES    VSBY  WAVE
                 AIR SEA DIR/SP/G                  HT/PER
                 (F)     (DEG/KT/KT) (MB)    (MI)  (FT/S)
CALUMET HARBOR           150/  1/  4   N/A
MICHIGAN CITY     75      80/  3/  3   N/A
BURNS HARBOR      76      90/  5/ 10 1016.9
SAINT JOSEPH      72      CALM  /  1 1017.3R
SOUTH LAKE BUOY   75 76  160/  6/  8 1015.4R         0
4 MI NW BRIDGMAN  76 78  130/  4/  4 1016.0R         0
MICHIGAN CITY     76 77  150/  4/  4   N/A           0

$$
&&




USA.gov is the U.S. government's official web portal to all federal, state and local government web resources and services.